Location: Alphen aan den Rijn
(52.1277°N, 4.6689°E)
Time: 06:34:34
(UTC+01:00)

Tiangong 2 - Visible Passes

Search period start: 22 November 2017 00:00
Search period end: 02 December 2017 00:00
Orbit: 386 x 392 km, 42.8° (Epoch: 21 November)

Date Brightness Start Highest point End Pass type
(mag) Time Alt. Az. Time Alt. Az. Time Alt. Az.
28 Nov 4.1 07:28:16 10° SSW 07:29:41 12° SSE 07:31:06 10° SE visible
30 Nov 3.9 07:07:52 10° SSW 07:09:44 15° S 07:11:37 10° SE visible
01 Dec 3.8 06:10:33 11° S 06:11:45 13° SSE 06:13:13 10° SE visible
01 Dec 3.8 07:45:48 10° SW 07:47:49 16° S 07:49:49 10° SE visible
